Volver al catálogo

STARLINK-1569

ActivoComunicacionesVLEO
NORAD 46039·PAYLOAD·🇺🇸 United States

Lanzado Aug 7, 2020 desde Cape Canaveral Space Force Station

Loading…

Próximos Pases (próximas 24 horas)

TLE

ActualizadoSource: CelesTrak SupGP

Época: Sep 14, 2026, 20:57 UTC

1 46039C 20055N   26257.87340278 -.00032818  00000+0 -10552-2 0  2570
2 46039  53.1581 326.9991 0001146  82.5557 207.4246 15.31722064    17

Sigue STARLINK-1569 en tiempo real con AllMySat

Download on the App Store